Regional Weather Roundup
Issued by NWS Portland, ME

Current Version | Previous Version | Text Only | Print | Product List | Glossary On
Versions: 1 2 3 4 5 6 7 8 9 10 11 12 13 14 15 16 17 18 19 20 21 22 23 24 25 26 27 28 29 30 31 32 33 34 35 36 37 38 39 40 41 42 43 44 45 46 47 48 49 50
000 ASUS41 KGYX 270510 RWRGYX WEATHER ROUNDUP FOR MAINE AND NEW HAMPSHIRE NATIONAL WEATHER SERVICE GRAY ME 1200 AM EST THU NOV 27 2014 MEZ002-005-006-010-012-015-018-020-021-024-026-027-029-270600- MAINE CITY SKY/WX TMP DP RH WIND PRES REMARKS PORTLAND LGT SNOW 33 31 92 N17G29 29.72F FOG SANFORD CLOUDY 30 28 93 N22G31 29.71F WCI 17 BAR HARBOR CLOUDY 32 32 100 N22G29 29.70F WCI 19 WISCASSET LGT SNOW 32 31 96 VRB7 29.72F FOG ROCKLAND CLOUDY 34 32 93 N20G31 29.67F FRYEBURG LGT SNOW 31 30 96 VRB7 29.78F FOG LEWISTONAUBURN CLOUDY 30 28 93 N21 29.75F WCI 17 AUGUSTA LGT SNOW 30 28 92 N22G29 29.75F VSB 1 WCI 17 WATERVILLE CLOUDY 30 25 80 N17G23 29.75F WCI 18 BANGOR LGT SNOW 30 28 92 N17G26 29.79F VSB 1 WCI 18 GREENVILLE N/A 25 21 85 N16G25 29.80F WCI 12 MILLINOCKET SNOW 28 25 88 N13G23 29.89F VSB 1/2 WCI 17 HOULTON LGT SNOW 28 26 92 N16 29.88F VSB 3/4 WCI 16 PRESQUE ISLE CLOUDY 27 21 80 N18G24 29.94F WCI 13 FRENCHVILLE LGT SNOW 22 19 89 N15G21 29.97F FOG WCI 9 CARIBOU LGT SNOW 25 22 88 N13G25 29.96F FOG WCI 14 $$ NHZ002-005-008-009-011-012-014-270600- NEW HAMPSHIRE CITY SKY/WX TMP DP RH WIND PRES REMARKS ROCHESTER MIX PCPN 31 29 92 N16G24 29.71F FOG WCI 20 NASHUA LGT SNOW 34 32 93 N6 29.74F FOG MANCHESTER LGT SNOW 32 30 92 N16 29.72F FOG CONCORD NOT AVBL LACONIA CLOUDY 32 30 93 NE3 29.73F BERLIN LGT SNOW 29 26 89 N5 29.81F VSB 1 WHITEFIELD LGT SNOW 29 27 92 NW5 29.82F FOG JAFFREY LGT SNOW 31 29 92 VRB5 29.72F FOG LEBANON LGT SNOW 31 27 85 NW8 29.82F FOG MT WASHINGTON SNOW 12 12 100 NE44G51 N/A VSB 0 WCI -13 $$ VTZ005-007-008-270600- VERMONT CITY SKY/WX TMP DP RH WIND PRES REMARKS ST JOHNSBURY N/A 30 27 88 MISG 29.85F MONTPELIER LGT SNOW 27 25 92 N9 29.89F FOG BURLINGTON LGT SNOW 29 26 89 N12 29.95F FOG WCI 19 $$ MAZ007-012-024-CTZ003-RIZ002-NYZ038-NYZ072-270600- SOUTHERN NEW ENGLAND AND NY CITY SKY/WX TMP DP RH WIND PRES REMARKS BOSTON LGT SNOW 34 31 88 N15G25 29.69R FOG WORCESTER LGT SNOW 30 29 96 N15G26 29.68F FOG WCI 19 NANTUCKET LGT RAIN 46 44 93 N26G35 29.47R FOG PROVIDENCE LGT RAIN 34 31 88 N24G36 29.66R HARTFORD LGT SNOW 35 31 85 N10 29.76R FOG ALBANY LGT SNOW 31 29 92 N10 29.90S FOG NEW YORK CITY CLOUDY 36 32 85 N15 29.83R $$ ANZ081-ANZ082-ANZ150-NHZ014-MEZ023>029-270600- COASTAL MARINE OBSERVATIONS STATION/POSITION TIME TEMP WIND PRES WAVE AIR SEA DIR/SP/G HT/PER (UTC) (F) (DEG/KT/KT) (MB) (FT/S) MOUNT DESERT ROC 0500 40 1000.6F MATINICUS ROCK 0500 20/ 34/ 43 1001.7F PORTLAND WX BUOY 0450 36 50 10/ 31/ 39 1003.8F 8/ 7 WELLS 0400 32 44 10/ 16/ 22 1006.1F ISLE OF SHOALS 0400 34 10/ 39/ 43 1004.4F JEFFREYS LEDGE 0421 51 N/A 14/ 9 CASHES LEDGE BUO 0450 42 50 20/ 33/ 41 998.7F 16/ 9 $$ .............KEY.............. WCI - WIND CHILL TC - TEMPERATURE IN CELSIUS VSB - VISIBILITY IN MILES HX - HEAT INDEX FAIR- INDICATES FEW OR NO CLOUDS BELOW 12,000 FT, WITH NO SIGNIFICANT WEATHER AND/OR OBSTRUCTIONS TO VISIBILITY.

USA.gov is the U.S. government's official web portal to all federal, state and local government web resources and services.